Regional Weather Roundup
Issued by NWS

Home | Current Version | Previous Version | Text Only | Print | Product List | Glossary On
Versions: 1 2 3 4 5 6 7 8 9 10 11 12 13 14 15 16 17 18 19 20 21 22 23 24 25 26 27 28 29 30 31 32 33 34 35 36 37 38 39 40 41 42 43 44 45 46 47 48 49 50
000
ASHW40 PHFO 220243
RWRHI

WEATHER ROUNDUP FOR HAWAII
NATIONAL WEATHER SERVICE HONOLULU HI
400 PM HST SUN SEP 21 2014

THIS IS AN AUTOMATED REPORT THAT HAS NOT BEEN QUALITY CONTROLLED.

NOTE..."FAIR" INDICATES FEW OR NO CLOUDS BELOW 12,000 FEET WITH NO
SIGNIFICANT WEATHER AND/OR OBSTRUCTIONS TO VISIBILITY.

* - THESE SITES REPORT LIMITED FIELDS

HIZ001>004-220300-
KAUAI-NIIHAU-

CITY           SKY/WX    TMP DP  RH WIND       PRES   REMARKS
LIHUE APT      MOSUNNY   86  72  62 NE8       29.95S HX  92
PORT ALLEN*      N/A     84 N/A N/A SE15G21     N/A
POIPU*           N/A     88 N/A N/A NE7G14      N/A
PRINCEVILLE*   NOT AVBL
KOKOLE POINT*  NOT AVBL
MOLOAA DAIRY*  NOT AVBL
WAIMEA HTS*      N/A     84  70  61 W6G16       N/A
PUU OPAE*        N/A     72  68  88 CALM        N/A
PUU LUA*       NOT AVBL
MAKAHA RIDGE*    N/A     84  72  65 W1          N/A
$$

HIZ005>011-220300-
OAHU-

CITY           SKY/WX    TMP DP  RH WIND       PRES   REMARKS
HONOLULU       PTSUNNY   88  70  55 N9        29.90S HX  93
KALAELOA       CLOUDY    85  75  72 SE8G17    29.93S HX  93
KANEOHE MCB    PTSUNNY   86  73  66 NE8       29.94R HX  93
WHEELER FIELD  NOT AVBL
BELLOWS*         N/A    N/A N/A N/A NE12        N/A
KAHUKU*          N/A    N/A N/A N/A E9G20       N/A
WHEELER*       NOT AVBL
WAIANAE HARBOR NOT AVBL
DILLINGHAM*      N/A     88  72  58 NW2G8       N/A  HX  94
KAHUKU TRN*      N/A     82  73  74 E9G17       N/A
KAWAILOA*      NOT AVBL
KII*             N/A     84  75  74 E13         N/A  HX  92
MAKUA RANGE*     N/A     84  73  70 SW3         N/A  HX  91
OAHU FOREST NW   N/A     72  72 100 N8G16       N/A
SCHOFIELD BRK*   N/A     77  73  88 MISG        N/A
SCHOFIELD S*   NOT AVBL
WAIANAE VLY*     N/A     82  73  74 N2          N/A
KUAOKALA*        N/A     82  72  69 CALM        N/A
HONOULIUULI*   NOT AVBL
MOKUOLOE IS*     N/A    N/A N/A N/A MISG        N/A
PALEHUA*         N/A     81  73  78 CALM        N/A
WAIAWA PHB*    NOT AVBL
$$

HIZ012>013-220300-
MOLOKAI-

CITY           SKY/WX    TMP DP  RH WIND       PRES   REMARKS
MOLOKAI AIRPT  MOSUNNY   87  74  64 S7        29.94S HX  95
KALAUPAPA      NOT AVBL
MAKAPULAPAI*     N/A     86  73  66 E15G21      N/A  HX  93
MOLOKAI 1*       N/A     79  72  78 W2G10       N/A
PUU ALII*        N/A     73  64  73 N1          N/A
$$

HIZ016-220300-
KAHOOLAWE-

CITY           SKY/WX    TMP DP  RH WIND       PRES   REMARKS
KAHOOLAWE*       N/A     79 N/A N/A E14G21      N/A
HAKIOAWA*      NOT AVBL
HONOKANAIA*      N/A     86  73  64 E18G28    29.92F HX  93
KANELOA*         N/A     81  72  74 E18G28    29.16S
KEALIALALO*    NOT AVBL
LUA MAKIKA*    NOT AVBL
$$

HIZ014>015-220300-
LANAI-

CITY           SKY/WX    TMP DP  RH WIND       PRES   REMARKS
LANAI CITY     FAIR      86  73  64 W8        29.99S HX  93
LANAI 1*         N/A     81  77  89 NE12G18     N/A
$$

HIZ017>028-220300-
MAUI-

CITY           SKY/WX    TMP DP  RH WIND       PRES   REMARKS
KAHULUI        MOSUNNY   90  72  55 NE16      29.90F HX  97
KAPALUA-W MAUI MOSUNNY   90  73  58 NE10      29.91  HX  98
HANA AIRPORT   MOSUNNY   82  72  69 E5        29.98R HAZE
HANA*            N/A     84 N/A N/A E7G14       N/A
HALEAKALA SUMM   N/A     55  43  62 VRB8        N/A
MAALAEA BAY*   NOT AVBL
HALEAKALA*     NOT AVBL
KAUPO GAP*       N/A     73  68  83 S3G9        N/A
KULA 1*          N/A     68  61  78 NW7         N/A
$$

HIZ023>026-220300-
BIG ISLAND OF HAWAII COAST AND LOWER SLOPES-

CITY           SKY/WX    TMP DP  RH WIND       PRES   REMARKS
KAILUA KONA    MOSUNNY   84  75  74 SW9       29.91R HX  92
HILO           CLOUDY    84  73  69 E9        29.93S HX  90
HONOKAA*       NOT AVBL
KAWAIHAE MWT*    N/A     86 N/A N/A SW8         N/A
KAWAIHAE*        N/A     82 N/A N/A SW6         N/A
SOUTH POINT*     N/A     75 N/A N/A NE14G20     N/A
UPOLU AIRPORT*   N/A    N/A N/A N/A NE16G23     N/A
KAMUELA*       PTCLDY    79  66  65 N8        30.06S
HAKALAU*         N/A     65  61  86 E3G9        N/A
KALOKO-HONOKO*   N/A     88  75  66 W8          N/A  HX  97
PALI 2*          N/A     72  72 100 E6G17       N/A
KEALAKOMO*       N/A     82  75  78 E12G18      N/A
KAUPULEHU*       N/A     82  70  65 W12         N/A
KAPAPALA*        N/A     72  71  95 SE2G12      N/A
LOWER KAHUKU*  NOT AVBL
PUHE CS*       NOT AVBL
PUHO CS*         N/A     85  74  70 W3          N/A  HX  93
PTA KEAMUKU*     N/A     72  68  88 NW7         N/A
WAIKOLOA*        N/A     84  72  65 W10         N/A
$$

HIZ027>028-220300-
BIG ISLAND OF HAWAII INTERIOR AND SUMMMITS-

CITY           SKY/WX    TMP DP  RH WIND       PRES   REMARKS
BRADSHAW FIELD LGT RAIN  64  61  88 SW12G21   30.31R
MK VISITOR CEN NOT AVBL
MAUNA KEA*       N/A     43  25  49 N6          N/A
MAUNA LOA*       N/A     46  41  81 MISG        N/A
MAUNA LOA 1*   NOT AVBL
PTA KIPUKA*      N/A     68  63  83 N6G15       N/A
PTA RANGE 17*    N/A     66  63  88 W9G18       N/A
PTA WEST*        N/A     72  68  88 NW9G15      N/A
NENE CABIN*    NOT AVBL
AHUMOA*          N/A     63  62  98 N8          N/A
PTA PORTABLE*  NOT AVBL
PUU MALI*      NOT AVBL
$$

HIC003-220300-
NORTHWEST ISLANDS-

CITY           SKY/WX    TMP DP  RH WIND       PRES   REMARKS
MIDWAY ISLAND  PTSUNNY   86  73  66 E15G23    30.04F HX  93
MIDWAY NOS*    NOT AVBL
FRENCH FRIGATE NOT AVBL
$$

PHZ110>124-180-220300-
BUOY REPORTS

STATION/POSITION TIME  TEMP    WIND        PRES    WAVE   SWELL
                       AIR SEA DIR/SP/G            HT/PER HT/DIR
                 (UTC) (F)     (DEG/KT/KT) (MB)    (FT/S) (FT/D)
BUOY 51001       NOT AVBL
BUOY 51101       NOT AVBL
BUOY 51100       0100   80 83  120/  6/  8 1015.0F   4/ 9   3/ 50
BUOY 51003       0200   82 83   90/ 12/ 16 1012.3F   5/ 6   3
BUOY 51004       0149   81 82   80/ 12/ 16 1012.7F   5/11   3/ 70
BARBERS PT BUOY  NOT AVBL
WAIMEA BAY BUOY  0200      83                N/A     2/ 9
KAILUA BAY BUOY  0200      83                N/A     4/10   2/ 80
LANAI BUOY       NOT AVBL
BARBERS PT 2     0200      83                N/A     4/11   2/170
PAUWELA MAUI     0200      81                N/A     4/10   2/ 30
HILO             0200      82                N/A     4/10   2/ 10
KANEOHE BAY BUOY NOT AVBL
HANALEI KAUAI    NOT AVBL
KAHULUI HARBOR   0200   82 84  360/ 12/ 19 1013.0R
HONOLULU HARBOR  0200   87      40/  4/  8 1013.2R
KILO NALU        NOT AVBL
HILO HARBOR      0200   84      90/  5/ 10 1013.2R
MOKUOLOE         0200   83 86   90/ 10/ 12 1014.0S
NAWILIWILI       0200      85                N/A
WHOTS BUOY       NOT AVBL
BUOY 51028       NOT AVBL
$$

......................KEY........................................
  SKY/WX - SKY CONDITIONS/PRESENT WEATHER
  TMP    - TEMPERATURE IN FAHRENHEIT
  DWPT   - DEWPOINT IN FAHRENHEIT
  RH     - RELATIVE HUMIDITY IN PERCENT
  WIND   - DIRECTION AND SPEED /MPH FOR ISLANDS...KTS FOR BUOYS/
  PRES   - MEAN SEA LEVEL PRESSURE IN INCHES OF HG
  VSB    - VISIBILITY IN MILES
  HX     - HEAT INDEX
  WCI    - WIND CHILL INDEX
  VRB    - VARIABLE WIND DIRECTION
  N/A    - NOT AVAILABLE



USA.gov is the U.S. government's official web portal to all federal, state and local government web resources and services.